Location: DARK SKY Beskydy - Park tmavé oblohy, www.darkskybeskydy.cz
(49.4926°N, 18.5016°E)
Time: 05:53:28
(UTC+02:00)

Altair - Pass Details

Date: 17 July 2024
Orbit: 1502 x 1682 km, 47.2° (Epoch: 17 July)

Event Time Altitude Azimuth Distance (km) Brightness Sun altitude
Rises 03:18:08 0° 287° (WNW) 4,641 9.8 -12.3°
Reaches altitude 10° 03:22:12 10° 271° (W) 3,666 9.2 -11.9°
Maximum altitude 03:28:10 19° 230° (SW) 3,003 8.4 -11.3°
Drops below altitude 10° 03:34:14 10° 189° (S) 3,718 9.0 -10.8°
Sets 03:38:26 0° 173° (S) 4,729 9.6 -10.3°
